"startDT [UTC]","vpos","CH4 [ppm]","stdev(CH4) [ppm]","CO2 [ppm]","stdev(CO2) [ppm]","H2O_reported [%]","stdev(H2O_reported)","CavityPressure [torr]","CavityTemp [C]","OutletValve","CH4_dry [ppm]","CO2_dry [ppm]","DasTemp [C]","EtalonTemp [C]","WarmBoxTemp [C]","MPVPosition","T_ECpre [C]","T_EC1 [C]","T_EC2 [C]","p_inlet [hPa]","p_in [hPa]","p_out [hPa]","T_inlet [C]","RH_inlet [%]","dwpt_inlet [C]","T_vent [C]","RH_vent [%]","dwpt_vent [C]","flow_vent [l min-1]","flow_inlet [l min-1]","dwpt_sample [C]","T_room [C]"
2016-05-30 00:00:00,0.0,1.97364,0.00037,405.975,0.028,0.7971,0.0020,140.000,45.000,31753.84729,1.98950,409.965,38.806,45.069,45.000,0.00,0.09,-272.77,-272.84,-14,528,-932,26.1,17.6,-0.4,25.7,18.4,-0.1,5.73,1.78,-0.9,30.9
2016-05-30 00:01:00,0.0,1.97417,0.00038,405.950,0.026,0.7977,0.0020,140.002,45.000,31751.87771,1.99005,409.944,38.811,45.069,45.000,0.00,0.09,-272.77,-272.83,-15,527,-932,26.1,17.5,-0.4,25.7,18.4,-0.1,5.73,1.78,-0.9,30.8
2016-05-30 00:02:00,0.0,1.97351,0.00059,405.989,0.044,0.7989,0.0025,140.000,45.000,31751.35179,1.98949,409.989,38.812,45.069,45.000,0.00,0.09,-272.77,-272.83,-14,527,-932,26.1,17.6,-0.4,25.7,18.5,-0.1,5.73,1.96,-0.9,30.8
2016-05-30 00:03:00,0.0,1.97290,0.00040,405.952,0.029,0.8014,0.0031,139.998,45.000,31752.65876,1.98885,409.965,38.821,45.069,45.000,0.00,0.09,-272.78,-272.83,-13,528,-932,26.1,17.6,-0.4,25.7,18.5,-0.0,5.73,1.95,-0.9,30.9
2016-05-30 00:04:00,0.0,1.97350,0.00045,405.943,0.038,0.8011,0.0011,140.001,45.000,31753.75532,1.98943,409.955,38.830,45.069,45.000,0.00,0.09,-272.77,-272.83,-15,528,-932,26.1,17.6,-0.4,25.7,18.5,-0.0,5.73,1.78,-0.9,30.8
2016-05-30 00:05:00,0.0,1.97260,0.00063,405.992,0.027,0.7997,0.0034,140.000,45.000,31753.96499,1.98856,409.997,38.860,45.069,45.000,0.00,0.09,-272.76,-272.82,-14,527,-932,26.1,17.5,-0.4,25.7,18.5,-0.0,5.73,1.79,-0.9,30.9
2016-05-30 00:06:00,0.0,1.97253,0.00038,405.989,0.041,0.7962,0.0017,139.999,45.000,31752.31944,1.98840,409.973,38.871,45.069,45.000,0.00,0.09,-272.77,-272.84,-13,528,-932,26.2,17.4,-0.5,25.7,18.4,-0.1,5.73,1.96,-0.9,30.8
2016-05-30 00:07:00,0.0,1.97218,0.00035,405.987,0.045,0.7973,0.0023,140.001,45.000,31753.73099,1.98803,409.980,38.855,45.069,45.000,0.00,0.09,-272.78,-272.84,-15,528,-932,26.2,17.4,-0.5,25.7,18.4,-0.1,5.73,1.95,-0.9,30.9
2016-05-30 00:08:00,0.0,1.97186,0.00048,405.992,0.036,0.7995,0.0021,140.001,45.000,31753.95778,1.98781,409.997,38.838,45.069,45.000,0.00,0.09,-272.76,-272.83,-14,528,-932,26.2,17.5,-0.4,25.7,18.4,-0.1,5.73,1.77,-0.8,30.9
2016-05-30 00:09:00,0.0,1.97089,0.00091,406.045,0.045,0.7996,0.0017,139.999,45.000,31754.16813,1.98676,410.048,38.826,45.069,45.000,0.00,0.09,-272.76,-272.84,-13,528,-932,26.2,17.5,-0.4,25.7,18.5,-0.1,5.73,1.79,-0.9,30.9
2016-05-30 00:10:00,0.0,1.97348,0.00052,405.977,0.031,0.8066,0.0029,139.999,45.000,31753.45405,1.98947,410.018,38.828,45.069,45.000,0.00,0.09,-272.77,-272.84,-14,528,-932,26.2,17.6,-0.3,25.7,18.6,0.0,5.73,1.96,-0.8,30.9
2016-05-30 00:11:00,0.0,1.97362,0.00032,405.913,0.042,0.8070,0.0031,139.999,45.000,31755.47400,1.98972,409.955,38.825,45.069,45.001,0.00,0.09,-272.78,-272.83,-14,528,-932,26.2,17.6,-0.3,25.7,18.6,0.1,5.73,1.95,-0.8,30.9
2016-05-30 00:12:00,0.0,1.97375,0.00043,405.888,0.051,0.8050,0.0014,140.001,45.000,31757.74776,1.98980,409.919,38.843,45.069,45.001,0.00,0.09,-272.77,-272.83,-13,528,-932,26.2,17.6,-0.4,25.8,18.6,0.1,5.73,1.77,-0.8,30.9
2016-05-30 00:13:00,0.0,1.97302,0.00073,405.976,0.057,0.8005,0.0029,140.001,45.000,31756.32567,1.98897,409.984,38.841,45.069,45.001,0.00,0.09,-272.77,-272.83,-14,528,-932,26.2,17.5,-0.4,25.7,18.5,-0.0,5.73,1.79,-0.8,30.9
2016-05-30 00:14:00,0.0,1.97362,0.00042,405.936,0.047,0.8014,0.0019,139.999,45.000,31756.82967,1.98958,409.949,38.870,45.069,45.000,0.00,0.09,-272.78,-272.83,-15,528,-932,26.2,17.5,-0.4,25.8,18.4,-0.0,5.73,1.96,-0.8,30.9
2016-05-30 00:15:00,0.0,1.97431,0.00044,405.959,0.037,0.8025,0.0016,139.998,45.000,31754.98505,1.99028,409.976,38.893,45.069,45.000,0.00,0.09,-272.77,-272.82,-13,528,-932,26.2,17.5,-0.4,25.8,18.5,-0.0,5.73,1.95,-0.8,30.9
2016-05-30 00:16:00,0.0,1.97314,0.00088,405.998,0.039,0.7989,0.0024,140.000,45.000,31757.29615,1.98910,409.999,38.922,45.069,45.000,0.00,0.09,-272.76,-272.83,-14,528,-932,26.2,17.4,-0.5,25.8,18.4,-0.0,5.73,1.78,-0.8,30.9
2016-05-30 00:17:00,0.0,1.97343,0.00064,405.998,0.023,0.7995,0.0029,140.002,45.000,31759.51825,1.98930,410.002,38.931,45.068,44.999,0.00,0.09,-272.77,-272.83,-15,528,-932,26.2,17.4,-0.5,25.8,18.4,-0.1,5.73,1.79,-0.8,30.9
2016-05-30 00:18:00,0.0,1.97467,0.00043,405.996,0.025,0.8007,0.0019,140.000,45.000,31758.61423,1.99063,410.005,38.938,45.068,44.999,0.00,0.09,-272.76,-272.83,-14,528,-932,26.2,17.4,-0.4,25.8,18.4,-0.1,5.73,1.96,-0.8,30.9
2016-05-30 00:19:00,0.0,1.97342,0.00127,406.031,0.050,0.7997,0.0019,139.999,45.000,31759.99243,1.98938,410.036,38.938,45.068,44.999,0.00,0.09,-272.77,-272.83,-13,528,-932,26.2,17.4,-0.4,25.8,18.4,-0.1,5.73,1.95,-0.8,31.0
2016-05-30 00:20:00,0.0,1.97252,0.00075,406.084,0.030,0.7982,0.0022,139.998,45.000,31759.05874,1.98846,410.082,38.938,45.068,45.000,0.00,0.09,-272.77,-272.83,-14,528,-932,26.2,17.4,-0.5,25.8,18.3,-0.1,5.73,1.78,-0.8,31.0
2016-05-30 00:21:00,0.0,1.97133,0.00157,406.132,0.059,0.7947,0.0031,139.999,45.000,31760.56480,1.98718,410.110,38.940,45.068,45.000,0.00,0.09,-272.76,-272.83,-14,528,-932,26.2,17.3,-0.6,25.8,18.3,-0.1,5.73,1.78,-0.8,31.0
2016-05-30 00:22:00,0.0,1.97151,0.00061,406.112,0.035,0.7945,0.0029,139.998,45.000,31763.09489,1.98723,410.094,38.939,45.069,45.000,0.00,0.09,-272.76,-272.84,-13,528,-932,26.2,17.3,-0.5,25.8,18.2,-0.2,5.73,1.94,-0.8,31.0
2016-05-30 00:23:00,0.0,1.97303,0.00064,406.016,0.024,0.7984,0.0019,139.999,45.000,31763.06514,1.98891,410.014,38.939,45.069,45.000,0.00,0.09,-272.77,-272.83,-14,528,-932,26.2,17.4,-0.5,25.8,18.3,-0.1,5.73,1.96,-0.8,31.0
2016-05-30 00:24:00,0.0,1.97335,0.00063,406.004,0.031,0.7998,0.0019,139.998,45.000,31762.94708,1.98926,410.009,38.938,45.069,45.000,0.00,0.09,-272.77,-272.84,-15,528,-933,26.3,17.4,-0.4,25.8,18.3,-0.1,5.73,1.80,-0.8,31.0
2016-05-30 00:25:00,0.0,1.97352,0.00044,406.001,0.044,0.8023,0.0022,139.997,45.000,31762.81214,1.98949,410.020,38.938,45.069,45.000,0.00,0.09,-272.76,-272.83,-13,528,-932,26.2,17.4,-0.4,25.8,18.4,-0.0,5.73,1.77,-0.8,31.0
2016-05-30 00:26:00,0.0,1.97402,0.00034,406.005,0.028,0.8008,0.0014,140.000,45.000,31763.95543,1.98998,410.014,38.936,45.069,45.000,0.00,0.09,-272.77,-272.83,-14,528,-933,26.3,17.4,-0.4,25.8,18.4,-0.1,5.73,1.92,-0.8,31.0
2016-05-30 00:27:00,0.0,1.97378,0.00042,406.004,0.033,0.7994,0.0020,139.998,45.000,31764.51837,1.98971,410.008,38.938,45.069,45.000,0.00,0.09,-272.78,-272.83,-15,528,-933,26.3,17.3,-0.4,25.8,18.3,-0.1,5.73,1.98,-0.8,31.0
2016-05-30 00:28:00,0.0,1.97307,0.00053,406.045,0.039,0.7968,0.0021,140.000,45.000,31766.07080,1.98896,410.034,38.938,45.069,45.000,0.00,0.09,-272.77,-272.83,-14,528,-933,26.3,17.3,-0.5,25.8,18.3,-0.1,5.73,1.83,-0.8,31.0
2016-05-30 00:29:00,0.0,1.97367,0.00055,406.061,0.034,0.7972,0.0022,140.002,45.000,31765.33077,1.98946,410.054,38.938,45.069,45.000,0.00,0.09,-272.77,-272.83,-13,528,-933,26.3,17.3,-0.5,25.8,18.2,-0.1,5.73,1.76,-0.8,31.0
2016-05-30 00:30:00,0.0,1.97429,0.00046,406.038,0.033,0.7986,0.0033,140.000,45.000,31764.21569,1.99022,410.037,38.938,45.069,45.000,0.00,0.09,-272.78,-272.84,-14,528,-933,26.3,17.3,-0.5,25.8,18.2,-0.1,5.73,1.90,-0.8,31.0
2016-05-30 00:31:00,0.0,1.97468,0.00040,406.063,0.039,0.7996,0.0034,139.999,45.000,31765.44495,1.99064,410.067,38.939,45.069,45.000,0.00,0.09,-272.77,-272.83,-14,528,-933,26.3,17.3,-0.4,25.8,18.3,-0.1,5.73,1.98,-0.8,31.0
2016-05-30 00:32:00,0.0,1.97454,0.00051,406.082,0.044,0.8008,0.0021,140.001,45.000,31767.77271,1.99046,410.093,38.938,45.069,45.000,0.00,0.09,-272.76,-272.82,-13,528,-933,26.3,17.3,-0.4,25.9,18.3,-0.1,5.73,1.85,-0.7,31.0
2016-05-30 00:33:00,0.0,1.97461,0.00055,406.099,0.047,0.7978,0.0021,140.001,45.000,31767.96207,1.99050,410.095,38.939,45.069,45.000,0.00,0.09,-272.76,-272.83,-14,528,-933,26.3,17.3,-0.5,25.9,18.3,-0.1,5.73,1.75,-0.7,31.0
2016-05-30 00:34:00,0.0,1.97438,0.00054,406.150,0.026,0.7970,0.0015,140.000,45.000,31768.93739,1.99028,410.141,38.938,45.069,45.000,0.00,0.09,-272.77,-272.84,-15,528,-933,26.3,17.2,-0.5,25.9,18.2,-0.1,5.73,1.88,-0.8,31.0
2016-05-30 00:35:00,0.0,1.97417,0.00061,406.139,0.035,0.7985,0.0029,139.999,45.000,31769.93346,1.99005,410.139,38.942,45.069,45.000,0.00,0.09,-272.77,-272.83,-13,528,-933,26.4,17.3,-0.5,25.9,18.2,-0.1,5.73,1.99,-0.8,31.0
2016-05-30 00:36:00,0.0,1.97436,0.00051,406.085,0.043,0.7999,0.0016,139.999,45.000,31772.25904,1.99033,410.091,38.940,45.069,45.000,0.00,0.09,-272.77,-272.82,-14,528,-933,26.3,17.3,-0.5,25.9,18.2,-0.1,5.73,1.88,-0.8,31.0
2016-05-30 00:37:00,0.0,1.97312,0.00041,406.186,0.039,0.7964,0.0018,140.000,45.000,31768.90001,1.98900,410.176,38.941,45.069,45.000,0.00,0.09,-272.77,-272.84,-15,528,-933,26.4,17.2,-0.5,25.9,18.2,-0.1,5.73,1.75,-0.8,31.1
2016-05-30 00:38:00,0.0,1.97355,0.00060,406.169,0.043,0.7987,0.0027,139.999,45.000,31768.33058,1.98945,410.170,38.943,45.069,45.000,0.00,0.09,-272.77,-272.84,-14,528,-933,26.4,17.2,-0.5,25.9,18.2,-0.1,5.73,1.84,-0.7,31.0
2016-05-30 00:39:00,0.0,1.97449,0.00055,406.135,0.037,0.8002,0.0020,140.000,45.000,31768.80102,1.99040,410.142,38.978,45.069,45.000,0.00,0.09,-272.76,-272.83,-14,528,-933,26.4,17.3,-0.4,25.9,18.2,-0.1,5.73,1.99,-0.7,31.1
2016-05-30 00:40:00,0.0,1.97496,0.00064,407.011,1.001,0.8039,0.0023,139.999,45.000,31770.23824,1.99100,411.020,38.998,45.069,45.000,0.00,0.09,-272.77,-272.84,-15,528,-933,26.4,17.4,-0.4,25.9,18.3,0.0,5.73,1.90,-0.7,31.0
2016-05-30 00:41:00,0.0,1.97529,0.00071,407.491,0.471,0.8028,0.0022,139.998,45.000,31771.49446,1.99128,411.544,38.999,45.069,45.000,0.00,0.09,-272.77,-272.83,-14,528,-933,26.4,17.3,-0.4,25.9,18.3,-0.0,5.73,1.75,-0.7,31.0
2016-05-30 00:42:00,0.0,1.97392,0.00055,406.227,0.123,0.7997,0.0020,139.995,45.000,31772.40647,1.98987,410.245,38.982,45.068,44.999,0.00,0.09,-272.77,-272.82,-13,529,-933,26.4,17.3,-0.4,25.9,18.3,-0.0,5.73,1.82,-0.7,31.0
2016-05-30 00:43:00,0.0,1.97403,0.00042,406.160,0.029,0.8011,0.0020,139.999,45.000,31772.15527,1.99002,410.172,38.939,45.068,44.999,0.00,0.09,-272.77,-272.83,-14,529,-933,26.4,17.3,-0.4,25.9,18.2,-0.1,5.73,1.98,-0.7,31.1
2016-05-30 00:44:00,0.0,1.97379,0.00043,406.193,0.035,0.8056,0.0024,140.001,44.999,31771.49264,1.98985,410.228,38.897,45.067,44.999,0.00,0.09,-272.78,-272.83,-15,528,-933,26.4,17.4,-0.4,25.9,18.3,0.0,5.73,1.91,-0.7,31.1
2016-05-30 00:45:00,0.0,1.97354,0.00037,406.196,0.029,0.8033,0.0021,139.999,44.999,31772.47215,1.98954,410.221,38.872,45.068,44.999,0.00,0.09,-272.77,-272.83,-14,529,-933,26.4,17.3,-0.4,25.9,18.3,-0.0,5.73,1.74,-0.7,31.1
2016-05-30 00:46:00,0.0,1.97352,0.00050,406.196,0.040,0.8047,0.0027,139.998,44.999,31771.29787,1.98957,410.228,38.859,45.068,44.999,0.00,0.09,-272.77,-272.83,-14,529,-933,26.4,17.4,-0.4,25.9,18.3,0.0,5.73,1.84,-0.7,31.1
2016-05-30 00:47:00,0.0,1.97321,0.00037,406.219,0.037,0.8026,0.0018,140.000,44.999,31772.93286,1.98921,410.240,38.840,45.068,44.999,0.00,0.09,-272.77,-272.83,-15,529,-933,26.4,17.3,-0.4,25.9,18.3,-0.0,5.73,2.00,-0.7,31.0
2016-05-30 00:48:00,0.0,1.97325,0.00038,406.254,0.074,0.8022,0.0014,140.000,44.999,31772.63000,1.98922,410.274,38.814,45.068,45.000,0.00,0.09,-272.77,-272.84,-14,528,-933,26.4,17.3,-0.4,25.9,18.3,-0.0,5.73,1.88,-0.7,31.1
2016-05-30 00:49:00,0.0,1.97276,0.00047,406.181,0.041,0.8036,0.0018,140.000,45.000,31773.67338,1.98880,410.208,38.809,45.069,45.000,0.00,0.09,-272.76,-272.83,-14,529,-933,26.4,17.3,-0.4,25.9,18.3,-0.0,5.73,1.74,-0.7,31.1
2016-05-30 00:50:00,0.0,1.97215,0.00042,406.225,0.035,0.8033,0.0016,139.997,45.000,31770.58967,1.98815,410.250,38.775,45.069,45.000,0.00,0.09,-272.77,-272.84,-15,529,-933,26.4,17.3,-0.4,25.9,18.3,-0.0,5.73,1.87,-0.7,31.1
2016-05-30 00:51:00,0.0,1.97185,0.00045,406.247,0.043,0.8021,0.0017,139.997,45.000,31769.10807,1.98782,410.266,38.762,45.069,45.000,0.00,0.09,-272.77,-272.83,-14,529,-932,26.4,17.2,-0.4,25.9,18.2,-0.0,5.73,2.00,-0.7,31.1
2016-05-30 00:52:00,0.0,1.97125,0.00044,406.261,0.039,0.8009,0.0022,139.998,45.000,31769.96091,1.98724,410.274,38.754,45.069,45.000,0.00,0.09,-272.77,-272.83,-14,529,-933,26.4,17.2,-0.4,26.0,18.2,-0.0,5.73,1.84,-0.7,31.1
2016-05-30 00:53:00,0.0,1.97052,0.00106,406.324,0.041,0.7975,0.0036,139.999,45.000,31769.28175,1.98642,410.319,38.752,45.069,45.000,0.00,0.09,-272.77,-272.83,-15,529,-933,26.4,17.1,-0.5,26.0,18.1,-0.1,5.73,1.74,-0.7,31.1
2016-05-30 00:54:00,0.0,1.97034,0.00078,406.360,0.039,0.7923,0.0029,139.998,45.000,31765.25850,1.98606,410.330,38.750,45.069,45.000,0.00,0.09,-272.77,-272.84,-14,529,-933,26.4,17.0,-0.6,26.0,18.0,-0.2,5.73,1.92,-0.7,31.1
2016-05-30 00:55:00,0.0,1.97069,0.00077,406.360,0.044,0.7956,0.0033,140.000,45.000,31767.77921,1.98650,410.347,38.746,45.069,45.000,0.00,0.09,-272.77,-272.83,-14,529,-932,26.4,17.1,-0.5,26.0,18.0,-0.2,5.73,1.98,-0.7,31.1
2016-05-30 00:56:00,0.0,1.97079,0.00048,406.322,0.019,0.7978,0.0016,139.999,45.000,31767.37297,1.98665,410.320,38.699,45.069,45.000,0.00,0.09,-272.76,-272.82,-15,529,-932,26.4,17.1,-0.5,26.0,18.1,-0.1,5.73,1.79,-0.7,31.1
2016-05-30 00:57:00,0.0,1.97152,0.00036,406.260,0.031,0.7993,0.0020,140.001,45.000,31771.40087,1.98739,410.266,38.691,45.069,45.000,0.00,0.09,-272.77,-272.83,-14,529,-932,26.4,17.2,-0.5,26.0,18.1,-0.1,5.73,1.77,-0.7,31.1
2016-05-30 00:58:00,0.0,1.97219,0.00038,406.189,0.045,0.8001,0.0014,140.000,45.000,31772.21130,1.98807,410.198,38.694,45.069,45.000,0.00,0.09,-272.77,-272.83,-14,529,-933,26.5,17.2,-0.4,26.0,18.1,-0.1,5.73,1.96,-0.7,31.1
2016-05-30 00:59:00,0.0,1.97281,0.00045,406.195,0.029,0.7983,0.0018,140.001,45.000,31771.98136,1.98869,410.194,38.693,45.069,45.000,0.00,0.09,-272.77,-272.82,-15,529,-933,26.5,17.2,-0.4,26.0,18.1,-0.1,5.73,1.93,-0.7,31.1
2016-05-30 01:00:00,0.0,1.97342,0.00029,406.212,0.039,0.8031,0.0018,140.001,45.000,31772.22645,1.98942,410.236,38.689,45.069,45.000,0.00,0.09,-272.77,-272.83,-14,529,-933,26.5,17.3,-0.4,26.0,18.2,-0.0,5.73,1.74,-0.7,31.1
2016-05-30 01:01:00,0.0,1.97294,0.00057,406.204,0.040,0.8030,0.0027,139.999,45.000,31772.73874,1.98893,410.227,38.688,45.069,45.000,0.00,0.09,-272.77,-272.84,-14,529,-933,26.5,17.2,-0.4,26.0,18.2,-0.0,5.73,1.83,-0.7,31.1
2016-05-30 01:02:00,0.0,1.97296,0.00040,406.177,0.031,0.7997,0.0023,140.002,45.000,31774.27865,1.98891,410.186,38.689,45.069,45.000,0.00,0.09,-272.76,-272.83,-15,529,-932,26.5,17.2,-0.4,26.0,18.1,-0.1,5.73,2.00,-0.7,31.1
2016-05-30 01:03:00,0.0,1.97239,0.00048,406.188,0.034,0.7969,0.0025,139.998,45.000,31771.98486,1.98825,410.181,38.688,45.069,45.000,0.00,0.09,-272.77,-272.83,-14,529,-932,26.5,17.1,-0.5,26.0,18.1,-0.1,5.73,1.86,-0.7,31.1
2016-05-30 01:04:00,0.0,1.97205,0.00040,406.185,0.034,0.7948,0.0016,139.999,45.000,31774.86547,1.98787,410.166,38.666,45.069,45.000,0.00,0.09,-272.77,-272.84,-14,529,-932,26.5,17.0,-0.5,26.0,18.0,-0.1,5.73,1.73,-0.7,31.1
2016-05-30 01:05:00,0.0,1.97291,0.00056,406.089,0.048,0.7967,0.0020,140.001,45.000,31775.12118,1.98876,410.079,38.640,45.069,45.000,0.00,0.09,-272.77,-272.83,-15,529,-932,26.5,17.1,-0.5,26.0,18.0,-0.1,5.73,1.92,-0.7,31.1
2016-05-30 01:06:00,0.0,1.97279,0.00078,406.118,0.046,0.7955,0.0020,139.998,45.000,31771.19070,1.98860,410.103,38.641,45.069,45.000,0.00,0.09,-272.77,-272.83,-14,529,-932,26.5,17.1,-0.5,26.0,18.0,-0.1,5.73,1.98,-0.7,31.1
2016-05-30 01:07:00,0.0,1.97227,0.00041,406.183,0.051,0.7955,0.0019,140.001,45.000,31773.19893,1.98816,410.166,38.625,45.069,45.000,0.00,0.09,-272.77,-272.84,-14,529,-932,26.5,17.0,-0.5,26.0,18.0,-0.1,5.73,1.77,-0.7,31.1
2016-05-30 01:08:00,0.0,1.97178,0.00068,406.230,0.052,0.7982,0.0025,140.001,45.000,31772.38535,1.98768,410.228,38.625,45.069,45.000,0.00,0.09,-272.77,-272.84,-15,529,-932,26.5,17.1,-0.5,26.0,18.0,-0.1,5.73,1.78,-0.7,31.1
2016-05-30 01:09:00,0.0,1.97196,0.00053,406.221,0.064,0.8006,0.0018,140.002,45.000,31771.98685,1.98783,410.236,38.623,45.069,45.000,0.00,0.09,-272.76,-272.83,-14,529,-932,26.5,17.2,-0.4,26.0,18.1,-0.1,5.73,1.99,-0.6,31.1
2016-05-30 01:10:00,0.0,1.97264,0.00038,406.162,0.044,0.8013,0.0023,140.000,45.000,31770.66059,1.98862,410.175,38.624,45.069,45.000,0.00,0.09,-272.77,-272.83,-14,529,-932,26.5,17.1,-0.4,26.0,18.1,-0.1,5.73,1.90,-0.7,31.1
2016-05-30 01:11:00,0.0,1.97212,0.00055,406.202,0.068,0.7983,0.0023,140.000,45.000,31769.64605,1.98802,410.200,38.625,45.069,45.000,0.00,0.09,-272.77,-272.83,-15,529,-932,26.5,17.1,-0.5,26.1,18.0,-0.1,5.73,1.73,-0.7,31.1
2016-05-30 01:12:00,0.0,1.97112,0.00064,406.285,0.041,0.8023,0.0024,140.001,45.000,31769.84973,1.98704,410.306,38.624,45.069,45.000,0.00,0.09,-272.77,-272.82,-14,529,-932,26.5,17.2,-0.4,26.1,18.1,-0.0,5.73,1.88,-0.7,31.1
2016-05-30 01:13:00,0.0,1.97213,0.00075,406.227,0.033,0.7993,0.0033,140.000,45.000,31769.53247,1.98808,410.231,38.606,45.069,45.000,0.00,0.09,-272.77,-272.82,-14,529,-932,26.5,17.1,-0.5,26.1,18.1,-0.1,5.73,1.99,-0.7,31.2
2016-05-30 01:14:00,0.0,1.97284,0.00065,406.232,0.029,0.7992,0.0024,140.001,45.000,31768.95703,1.98867,410.237,38.592,45.069,45.000,0.00,0.09,-272.77,-272.84,-15,529,-932,26.5,17.1,-0.5,26.1,18.0,-0.1,5.73,1.80,-0.7,31.1
2016-05-30 01:15:00,0.0,1.97308,0.00048,406.221,0.054,0.8001,0.0020,140.001,45.000,31770.22682,1.98903,410.229,38.604,45.069,45.000,0.00,0.09,-272.77,-272.84,-14,529,-932,26.5,17.1,-0.4,26.1,18.0,-0.1,5.73,1.77,-0.7,31.1
2016-05-30 01:16:00,0.0,1.97175,0.00048,406.289,0.047,0.8060,0.0031,139.998,45.000,31768.72764,1.98782,410.328,38.605,45.069,45.000,0.00,0.09,-272.76,-272.83,-14,529,-932,26.5,17.3,-0.3,26.1,18.1,0.0,5.73,1.98,-0.7,31.2
2016-05-30 01:17:00,0.0,1.97113,0.00066,406.314,0.034,0.8099,0.0020,140.000,45.000,31770.03095,1.98731,410.374,38.603,45.069,45.000,0.00,0.09,-272.77,-272.83,-15,529,-932,26.5,17.4,-0.3,26.1,18.2,0.1,5.73,1.92,-0.7,31.2
2016-05-30 01:18:00,0.0,1.97050,0.00054,406.308,0.032,0.8123,0.0021,139.997,45.000,31769.07821,1.98666,410.381,38.608,45.069,45.000,0.00,0.09,-272.77,-272.84,-14,529,-932,26.5,17.4,-0.2,26.1,18.3,0.1,5.73,1.74,-0.7,31.2
2016-05-30 01:19:00,0.0,1.96994,0.00051,406.305,0.025,0.8164,0.0016,139.998,45.000,31770.16155,1.98617,410.397,38.617,45.069,45.000,0.00,0.09,-272.76,-272.82,-14,530,-932,26.5,17.5,-0.1,26.1,18.3,0.2,5.73,1.86,-0.7,31.2
2016-05-30 01:20:00,0.0,1.96959,0.00040,406.309,0.041,0.8161,0.0024,139.998,45.000,31769.62893,1.98586,410.404,38.614,45.069,45.000,0.00,0.09,-272.77,-272.83,-15,529,-932,26.5,17.5,-0.1,26.1,18.3,0.2,5.73,2.00,-0.7,31.2
2016-05-30 01:21:00,0.0,1.96941,0.00051,406.316,0.036,0.8153,0.0015,140.001,45.000,31770.43078,1.98562,410.402,38.590,45.069,45.000,0.00,0.09,-272.78,-272.83,-14,529,-932,26.5,17.5,-0.2,26.1,18.3,0.1,5.73,1.81,-0.7,31.2
2016-05-30 01:22:00,0.0,1.96964,0.00043,406.331,0.030,0.8135,0.0023,140.002,45.000,31771.15675,1.98582,410.411,38.565,45.069,45.000,0.00,0.09,-272.76,-272.83,-14,530,-932,26.5,17.4,-0.2,26.1,18.2,0.1,5.73,1.75,-0.7,31.2
2016-05-30 01:23:00,0.0,1.96944,0.00091,406.342,0.041,0.8108,0.0025,139.997,45.000,31769.40180,1.98554,410.407,38.562,45.069,45.000,0.00,0.09,-272.76,-272.83,-15,529,-932,26.6,17.3,-0.2,26.1,18.2,0.0,5.73,1.96,-0.7,31.2
2016-05-30 01:24:00,0.0,1.97075,0.00057,406.427,0.039,0.8110,0.0022,139.998,45.000,31769.24851,1.98684,410.494,38.563,45.069,45.000,0.00,0.09,-272.77,-272.83,-14,529,-932,26.6,17.3,-0.2,26.1,18.1,0.0,5.73,1.94,-0.7,31.2
2016-05-30 01:25:00,0.0,1.97041,0.00084,406.413,0.038,0.8091,0.0028,139.999,45.000,31769.71876,1.98652,410.470,38.559,45.069,45.000,0.00,0.09,-272.76,-272.83,-14,530,-932,26.6,17.3,-0.3,26.1,18.1,-0.0,5.73,1.73,-0.7,31.2
2016-05-30 01:26:00,0.0,1.96968,0.00104,406.364,0.038,0.8099,0.0016,140.000,45.000,31770.92706,1.98586,410.427,38.557,45.069,45.000,0.00,0.09,-272.76,-272.83,-15,529,-932,26.6,17.3,-0.3,26.1,18.1,0.0,5.73,1.85,-0.7,31.2
2016-05-30 01:27:00,0.0,1.96859,0.00046,406.335,0.034,0.8076,0.0027,139.999,45.000,31770.49534,1.98461,410.381,38.554,45.069,45.000,0.00,0.09,-272.77,-272.83,-13,529,-932,26.6,17.2,-0.3,26.1,18.1,-0.0,5.73,2.00,-0.7,31.2
2016-05-30 01:28:00,0.0,1.96917,0.00068,406.343,0.042,0.8077,0.0023,139.999,45.000,31771.59392,1.98521,410.393,38.554,45.069,45.000,0.00,0.09,-272.77,-272.83,-15,530,-932,26.6,17.2,-0.3,26.1,18.0,-0.0,5.73,1.82,-0.7,31.2
2016-05-30 01:29:00,0.0,1.96434,0.00612,406.310,0.086,0.8057,0.0043,139.998,45.000,31771.75632,1.98089,410.352,38.563,45.069,45.000,0.00,0.09,-272.76,-272.83,-14,529,-932,26.6,17.2,-0.4,26.1,18.0,-0.0,5.73,1.74,-0.7,31.2
2016-05-30 01:30:00,0.0,1.95573,0.00507,406.262,0.071,0.7939,0.0064,140.000,45.000,31772.36934,1.97104,410.236,38.564,45.069,45.000,0.00,0.09,-272.76,-272.83,-14,530,-932,26.6,16.9,-0.6,26.2,17.7,-0.2,5.73,1.96,-0.7,31.2
2016-05-30 01:31:00,0.0,1.96542,0.00225,406.336,0.048,0.8087,0.0033,139.999,45.000,31770.85609,1.98126,410.389,38.563,45.069,45.000,0.00,0.09,-272.77,-272.83,-15,530,-932,26.6,17.3,-0.3,26.2,17.9,-0.1,5.73,1.94,-0.6,31.2
2016-05-30 01:32:00,0.0,1.96925,0.00034,406.252,0.030,0.8149,0.0021,140.001,45.000,31771.21987,1.98546,410.339,38.564,45.069,45.000,0.00,0.09,-272.77,-272.83,-14,529,-932,26.6,17.4,-0.2,26.2,18.1,0.1,5.73,1.74,-0.7,31.2
2016-05-30 01:33:00,0.0,1.96966,0.00101,406.253,0.062,0.8147,0.0022,139.997,45.000,31771.37424,1.98585,410.337,38.571,45.069,45.000,0.00,0.09,-272.77,-272.83,-14,530,-932,26.6,17.4,-0.2,26.2,18.2,0.1,5.73,1.84,-0.7,31.2
2016-05-30 01:34:00,0.0,1.96831,0.00068,406.241,0.042,0.8164,0.0019,140.000,45.000,31772.14043,1.98463,410.334,38.565,45.069,45.000,0.00,0.09,-272.77,-272.83,-15,530,-932,26.6,17.4,-0.2,26.2,18.2,0.1,5.73,2.00,-0.7,31.2
2016-05-30 01:35:00,0.0,1.96996,0.00076,406.264,0.031,0.8173,0.0026,140.001,45.000,31771.81775,1.98612,410.360,38.563,45.069,45.000,0.00,0.09,-272.77,-272.83,-14,530,-932,26.6,17.5,-0.1,26.2,18.2,0.1,5.73,1.83,-0.6,31.2
2016-05-30 01:36:00,0.0,1.96986,0.00122,406.271,0.031,0.8175,0.0020,140.000,45.000,31771.52192,1.98615,410.371,38.565,45.069,45.000,0.00,0.09,-272.76,-272.83,-14,530,-932,26.6,17.5,-0.1,26.2,18.2,0.1,5.73,1.74,-0.7,31.2
2016-05-30 01:37:00,0.0,1.96761,0.00202,406.226,0.043,0.8179,0.0024,140.003,45.000,31773.72884,1.98381,410.326,38.570,45.069,45.000,0.00,0.09,-272.77,-272.83,-15,530,-932,26.6,17.5,-0.1,26.2,18.2,0.2,5.73,1.95,-0.6,31.2
2016-05-30 01:38:00,0.0,1.96952,0.00111,406.260,0.042,0.8178,0.0024,139.999,45.000,31770.41152,1.98585,410.360,38.588,45.069,45.000,0.00,0.09,-272.77,-272.83,-14,529,-932,26.6,17.4,-0.1,26.2,18.2,0.2,5.73,1.95,-0.6,31.2
2016-05-30 01:39:00,0.0,1.96941,0.00069,406.284,0.033,0.8167,0.0020,140.002,45.000,31770.31500,1.98560,410.379,38.613,45.069,45.000,0.00,0.09,-272.76,-272.82,-14,530,-932,26.6,17.4,-0.1,26.2,18.2,0.1,5.73,1.74,-0.6,31.2
2016-05-30 01:40:00,0.0,1.96812,0.00162,406.256,0.034,0.8176,0.0015,140.000,45.000,31772.57563,1.98459,410.356,38.597,45.069,45.000,0.00,0.09,-272.76,-272.83,-15,530,-932,26.6,17.4,-0.2,26.2,18.2,0.2,5.73,1.83,-0.6,31.2
2016-05-30 01:41:00,0.0,1.96316,0.00277,406.246,0.042,0.8136,0.0022,139.999,45.000,31772.30112,1.97911,410.323,38.591,45.069,45.000,0.00,0.09,-272.77,-272.84,-14,530,-932,26.6,17.4,-0.2,26.2,18.2,0.1,5.73,2.00,-0.6,31.2
2016-05-30 01:42:00,0.0,1.96417,0.00355,406.265,0.046,0.8141,0.0027,140.001,45.000,31774.19724,1.98054,410.349,38.614,45.069,45.000,0.00,0.09,-272.76,-272.83,-14,530,-932,26.6,17.3,-0.2,26.2,18.1,0.1,5.73,1.85,-0.6,31.2
2016-05-30 01:43:00,0.0,1.96590,0.00100,406.286,0.040,0.8159,0.0029,140.001,45.000,31774.63727,1.98195,410.375,38.598,45.069,45.000,0.00,0.09,-272.76,-272.83,-15,530,-932,26.6,17.4,-0.2,26.2,18.1,0.1,5.73,1.73,-0.6,31.2
2016-05-30 01:44:00,0.0,1.96671,0.00111,406.281,0.033,0.8207,0.0024,139.999,45.000,31774.11574,1.98304,410.397,38.595,45.069,45.000,0.00,0.09,-272.77,-272.83,-14,530,-932,26.6,17.5,-0.1,26.2,18.3,0.2,5.73,1.93,-0.6,31.2
2016-05-30 01:45:00,0.0,1.96348,0.00218,406.271,0.049,0.8164,0.0029,140.000,45.000,31771.74929,1.97979,410.366,38.620,45.069,45.000,0.00,0.09,-272.77,-272.83,-14,530,-932,26.6,17.4,-0.1,26.2,18.2,0.2,5.73,1.97,-0.6,31.2